カタログに戻る

ONEWEB-0013

運用中通信PO
NORAD 45131·PAYLOAD·🇬🇧 United Kingdom

打ち上げ Feb 6, 2020 から Baikonur Cosmodrome

Loading…

次のパス (今後24時間)

TLE

最新Source: CelesTrak SupGP

元期: Sep 14, 2026, 19:40 UTC

1 45131C 20008A   26257.81963376  .00001657  00000+0  48160-2 0  2575
2 45131  87.8565  34.7302 0002636 107.7977 345.9195 13.09462083    12

AllMySatでONEWEB-0013をリアルタイム追跡

Download on the App Store